Tioga Municipal Airport, ND

6:23 PM CDT on July 25, 2017 (GMT -0500)
Tioga Municipal Airport

Weather History for KD60 - December, 2013

Change the Weather History Date:

Wednesday, December 18, 2013

  Actual Average (KISN) Record (KISN)
Temperature  
Mean Temperature 15 °F -  
Max Temperature 32 °F 24 °F 56 °F (1979)
Min Temperature -2 °F 3 °F -36 °F (1929)
Degree Days  
Heating Degree Days 50    
Moisture  
Dew Point 16 °F    
Average Humidity 97    
Maximum Humidity 100    
Minimum Humidity 80    
Precipitation  
Precipitation 0.00 in - - ()
Sea Level Pressure  
Sea Level Pressure 29.74 in    
Wind  
Wind Speed 13 mph (NW)    
Max Wind Speed 28 mph    
Max Gust Speed 38 mph    
Visibility 10 miles    
Events Rain , Snow    
Averages and records for this station are not official NWS values.
T = Trace of Precipitation, MM = Missing Value Source: NWS Daily Summary

Daily Weather History Graph

Daily Weather History Graph

Search for Another Location

Airport or City:

Trip Planner

Search our weather history database for the weather conditions in past years. The results will help you decide how hot, cold, wet, or windy it might be!

Date:

Astronomy

Dec. 18, 2013 Rise Set
Actual Time 8:38 AM CST 4:58 PM CST
Civil Twilight 8:01 AM CST 5:34 PM CST
Nautical Twilight 7:21 AM CST 6:14 PM CST
Astronomical Twilight 6:43 AM CST 6:53 PM CST
Moon 6:39 PM CST (12/18) 9:13 AM CST (12/18)
Length of Visible Light 9h 33m
Length of Day
8h 19m
Full, 98% of the Moon is Illuminated
Dec 18
Full
Dec 25
Last Quarter
Jan 1
New
Jan 7
First Quarter
Jan 15
Full

Hourly Weather History & Observations

Time (CST) Temp. Windchill Dew Point Humidity Pressure Visibility Wind Dir Wind Speed Gust Speed Precip Events Conditions
12:15 AM 17.6 °F 6.4 °F 17.6 °F 100% 29.62 in 10.0 mi WSW 9.2 mph - N/A   Clear
12:35 AM 21.2 °F 7.8 °F 21.2 °F 100% 29.60 in 10.0 mi WSW 15.0 mph - N/A   Clear
12:55 AM 23.0 °F 9.6 °F 23.0 °F 100% 29.60 in 10.0 mi WSW 16.1 mph - N/A   Clear
1:15 AM 23.0 °F 10.1 °F 23.0 °F 100% 29.59 in 10.0 mi WSW 15.0 mph - N/A   Clear
1:35 AM 23.0 °F 9.6 °F 23.0 °F 100% 29.59 in 10.0 mi WSW 16.1 mph - N/A   Clear
1:55 AM 23.0 °F 10.6 °F 23.0 °F 100% 29.59 in 10.0 mi West 13.8 mph - N/A   Clear
2:15 AM 23.0 °F 10.6 °F 23.0 °F 100% 29.58 in 10.0 mi West 13.8 mph - N/A   Clear
2:35 AM 23.0 °F 10.6 °F 23.0 °F 100% 29.58 in 10.0 mi West 13.8 mph - N/A   Clear
2:55 AM 23.0 °F 10.6 °F 23.0 °F 100% 29.59 in 10.0 mi WSW 13.8 mph - N/A   Clear
3:15 AM 24.8 °F 13.4 °F 24.8 °F 100% 29.58 in 10.0 mi West 12.7 mph - N/A   Clear
3:35 AM 21.2 °F 9.5 °F 21.2 °F 100% 29.59 in 10.0 mi WSW 11.5 mph - N/A   Clear
3:55 AM 23.0 °F 15.8 °F 23.0 °F 100% 29.59 in 10.0 mi West 5.8 mph - N/A   Clear
4:15 AM 26.6 °F 16.2 °F 24.8 °F 93% 29.57 in 10.0 mi West 11.5 mph - N/A   Clear
4:35 AM 26.6 °F 15.7 °F 24.8 °F 93% 29.57 in 10.0 mi West 12.7 mph - N/A   Clear
4:55 AM 23.0 °F 12.4 °F 23.0 °F 100% 29.57 in 10.0 mi West 10.4 mph - N/A   Clear
5:15 AM 21.2 °F 11.7 °F 21.2 °F 100% 29.57 in 10.0 mi West 8.1 mph - N/A   Clear
5:35 AM 19.4 °F 10.4 °F 19.4 °F 100% 29.57 in 10.0 mi WNW 6.9 mph - N/A   Clear
5:55 AM 17.6 °F 9.3 °F 17.6 °F 100% 29.57 in 10.0 mi West 5.8 mph - N/A   Clear
6:15 AM 19.4 °F 11.5 °F 19.4 °F 100% 29.57 in 10.0 mi WNW 5.8 mph - N/A   Clear
6:35 AM 21.2 °F 11.7 °F 21.2 °F 100% 29.57 in 10.0 mi WNW 8.1 mph - N/A   Clear
6:55 AM 19.4 °F 11.5 °F 19.4 °F 100% 29.56 in 10.0 mi NW 5.8 mph - N/A   Clear
7:15 AM 17.6 °F 6.4 °F 17.6 °F 100% 29.56 in 10.0 mi WSW 9.2 mph - N/A   Clear
7:35 AM 23.0 °F 12.4 °F 23.0 °F 100% 29.56 in 10.0 mi West 10.4 mph - N/A   Clear
7:55 AM 24.8 °F 14.6 °F 24.8 °F 100% 29.55 in 10.0 mi West 10.4 mph - N/A   Clear
8:15 AM 26.6 °F 18.2 °F 24.8 °F 93% 29.56 in 10.0 mi WNW 8.1 mph - N/A   Clear
8:35 AM 23.0 °F 13.1 °F 23.0 °F 100% 29.57 in 10.0 mi West 9.2 mph - N/A   Clear
8:55 AM 19.4 °F 7.2 °F 19.4 °F 100% 29.57 in 10.0 mi West 11.5 mph - N/A   Clear
9:15 AM 19.4 °F 7.2 °F 19.4 °F 100% 29.58 in 10.0 mi West 11.5 mph - N/A   Clear
9:35 AM 23.0 °F 11.7 °F 23.0 °F 100% 29.59 in 10.0 mi West 11.5 mph - N/A   Clear
9:55 AM 24.8 °F 14.6 °F 24.8 °F 100% 29.59 in 10.0 mi West 10.4 mph - N/A   Clear
10:15 AM 26.6 °F 15.2 °F 26.6 °F 100% 29.60 in 10.0 mi West 13.8 mph - N/A   Clear
10:35 AM 30.2 °F 18.1 °F 26.6 °F 86% 29.61 in 10.0 mi West 18.4 mph - N/A   Clear
10:55 AM 32.0 °F 19.5 °F 28.4 °F 87% 29.61 in 10.0 mi WNW 21.9 mph - N/A   Clear
11:15 AM 32.0 °F 19.5 °F 26.6 °F 80% 29.61 in 10.0 mi WNW 21.9 mph 26.5 mph N/A   Clear
11:35 AM 32.0 °F 18.6 °F 26.6 °F 80% 29.63 in 10.0 mi WNW 25.3 mph 32.2 mph N/A   Clear
11:55 AM 28.4 °F 16.6 °F 26.6 °F 93% 29.64 in 10.0 mi NW 16.1 mph 26.5 mph N/A   Clear
12:15 PM 28.4 °F 17.5 °F 26.6 °F 93% 29.66 in 10.0 mi NW 13.8 mph - N/A   Clear
12:35 PM 28.4 °F 19.7 °F 28.4 °F 100% 29.67 in 10.0 mi NNW 9.2 mph - N/A   Mostly Cloudy
12:55 PM 30.2 °F 20.8 °F 30.2 °F 100% 29.69 in 10.0 mi NNW 11.5 mph - N/A   Overcast
1:15 PM 30.2 °F 18.9 °F 30.2 °F 100% 29.70 in 10.0 mi NW 16.1 mph - N/A   Overcast
1:35 PM 28.4 °F 13.5 °F 28.4 °F 100% 29.70 in 10.0 mi NNW 26.5 mph 32.2 mph N/A   Overcast
1:55 PM 26.6 °F 11.1 °F 26.6 °F 100% 29.71 in 4.0 mi NNW 26.5 mph 38.0 mph N/A Rain Light Freezing Rain
2:15 PM 23.0 °F 6.9 °F 23.0 °F 100% 29.73 in 7.0 mi NNW 24.2 mph 31.1 mph N/A Rain Light Freezing Rain
2:35 PM 23.0 °F 6.6 °F 23.0 °F 100% 29.75 in 9.0 mi NNW 25.3 mph 35.7 mph N/A Rain Light Freezing Rain
2:55 PM 19.4 °F 1.8 °F 19.4 °F 100% 29.77 in 9.0 mi NNW 25.3 mph 34.5 mph N/A Rain Light Freezing Rain
3:15 PM 17.6 °F -0.6 °F 17.6 °F 100% 29.80 in 9.0 mi NW 25.3 mph 34.5 mph N/A Snow Light Snow
3:35 PM 15.8 °F -2.7 °F 15.8 °F 100% 29.81 in 9.0 mi NNW 24.2 mph 36.8 mph N/A Snow Light Snow
3:55 PM 14.0 °F -6.2 °F 14.0 °F 100% 29.82 in 5.0 mi NNW 27.6 mph 33.4 mph N/A Snow Light Snow
4:15 PM 12.2 °F -5.3 °F 12.2 °F 100% 29.84 in 9.0 mi NNW 18.4 mph 27.6 mph N/A Rain Light Freezing Rain
4:35 PM 10.4 °F -9.1 °F 10.4 °F 100% 29.84 in 9.0 mi NNW 21.9 mph 34.5 mph N/A Rain Light Freezing Rain
4:55 PM 8.6 °F -10.0 °F 8.6 °F 100% 29.86 in 6.0 mi NW 18.4 mph 31.1 mph N/A Snow Light Snow
5:15 PM 8.6 °F -11.0 °F 8.6 °F 100% 29.89 in 10.0 mi North 20.7 mph 26.5 mph N/A Rain Light Freezing Rain
5:35 PM 6.8 °F -12.9 °F 6.8 °F 100% 29.89 in 8.0 mi North 19.6 mph - N/A Snow Light Snow
5:55 PM 6.8 °F -10.0 °F 5.0 °F 92% 29.90 in 10.0 mi North 13.8 mph - N/A   Overcast
6:15 PM 5.0 °F -14.2 °F 3.2 °F 92% 29.90 in 10.0 mi North 17.3 mph 23.0 mph N/A   Scattered Clouds
6:35 PM 3.2 °F -16.5 °F 1.4 °F 92% 29.91 in 10.0 mi North 17.3 mph 23.0 mph N/A   Clear
6:55 PM 1.4 °F -17.6 °F 1.4 °F 100% 29.92 in 10.0 mi North 15.0 mph - N/A   Clear
7:15 PM 1.4 °F -16.1 °F 1.4 °F 100% 29.94 in 10.0 mi North 12.7 mph - N/A   Partly Cloudy
7:35 PM 1.4 °F -18.2 °F -0.4 °F 92% 29.94 in 10.0 mi North 16.1 mph 20.7 mph N/A   Partly Cloudy
7:55 PM 1.4 °F -18.2 °F -0.4 °F 92% 29.96 in 10.0 mi North 16.1 mph 20.7 mph N/A   Scattered Clouds
8:15 PM 1.4 °F -17.6 °F -0.4 °F 92% 29.98 in 10.0 mi North 15.0 mph 18.4 mph N/A   Partly Cloudy
8:35 PM 1.4 °F -14.5 °F -0.4 °F 92% 29.99 in 10.0 mi North 10.4 mph - N/A   Mostly Cloudy
8:55 PM -0.4 °F -14.7 °F -0.4 °F 100% 30.01 in 10.0 mi NNW 8.1 mph - N/A   Mostly Cloudy
9:15 PM -0.4 °F -16.7 °F -0.4 °F 100% 30.00 in 10.0 mi North 10.4 mph - N/A   Mostly Cloudy
9:35 PM -0.4 °F -18.4 °F -2.2 °F 92% 30.00 in 10.0 mi North 12.7 mph - N/A   Overcast
9:55 PM -0.4 °F -15.7 °F -2.2 °F 92% 30.02 in 10.0 mi North 9.2 mph - N/A   Overcast
10:15 PM -0.4 °F -13.4 °F -2.2 °F 92% 30.04 in 10.0 mi North 6.9 mph - N/A   Mostly Cloudy
10:35 PM -2.2 °F -12.5 °F -4.0 °F 92% 30.06 in 10.0 mi North 4.6 mph - N/A   Scattered Clouds
10:55 PM -0.4 °F -16.7 °F -4.0 °F 85% 30.07 in 10.0 mi North 10.4 mph - N/A   Partly Cloudy
11:15 PM -2.2 °F -18.0 °F -4.0 °F 92% 30.07 in 10.0 mi North 9.2 mph - N/A   Clear
11:35 PM -0.4 °F -15.7 °F -4.0 °F 85% 30.08 in 10.0 mi North 9.2 mph - N/A   Clear
11:55 PM -0.4 °F -16.7 °F -4.0 °F 85% 30.09 in 10.0 mi North 10.4 mph - N/A   Clear